Weather Roundup
Issued by NWS Springfield, MO

Home | Current Version | Previous Version | Text Only | Print | Product List | Glossary On
Versions: 1 2 3 4 5 6 7 8 9 10 11 12 13 14 15 16 17 18 19 20 21 22 23 24 25 26 27 28 29 30 31 32 33 34 35 36 37 38 39 40 41 42 43 44 45 46 47 48 49 50
000
NZUS99 KSGF 020707
HRRSGF

HOURLY WEATHER
NATIONAL WEATHER SERVICE SPRINGFIELD MO
200 AM CDT SUN AUG 02 2015

......SGF CWA......

CITY           SKY/WX    TMP DP  RH WIND       PRES   REMARKS
SPRINGFIELD    CLEAR     72  66  81 S5        30.00F
JOPLIN         CLEAR     72  67  84 S3        29.99F
WEST PLAINS    CLEAR     70  66  87 CALM      30.03F
ROLLA          PTCLDY    70  69  97 S6        29.98F
OSAGE BEACH    PTCLDY    70  64  83 CALM      29.98F
BRANSON        CLEAR     73  64  73 CALM      30.02F

......SURROUNDING SGF CWA......

CITY           SKY/WX    TMP DP  RH WIND       PRES   REMARKS
CHANUTE        PTCLDY    70  66  87 S6        29.98F
PARSONS        PTCLDY    69  68  96 CALM      29.98F
COFFEYVILLE    MOCLDY    70  67  90 SE3       29.97F
EMPORIA        MOCLDY    73  68  84 S8        29.96F
GROVE OK       CLEAR     70  70 100 CALM      30.00S
ROGERS AR      CLEAR     72  69  90 CALM      30.03S
SILOAM SPRINGS PTCLDY    70  63  78 E5        30.00F
HARRISON AR    CLEAR     68  65  90 CALM      30.02F
NEAR YELLVILLE CLEAR     72  64  78 CALM      29.97F

......KANSAS AND MISSOURI......

CITY           SKY/WX    TMP DP  RH WIND       PRES   REMARKS
KANSAS CTY INT PTCLDY    69  63  81 S9        29.95F
DOWNTOWN KC    PTCLDY    75  64  68 S7        29.94F
COLUMBIA       PTCLDY    68  66  93 E5        29.97S
SEDALIA        PTCLDY    68  63  84 S7        29.97F
ST JOSEPH      CLEAR     70  64  81 S5        29.93F
ST LOUIS       PTCLDY    80  71  74 S5        29.97F
SPIRIT OF STL  MOCLDY    72  70  93 CALM      29.95F
KIRKSVILLE     PTCLDY    67  62  84 S8        29.96R
WICHITA        PTCLDY    75  69  81 S8        29.96F
TOPEKA         CLEAR     74  69  85 SE7       29.95F
OLATHE         PTCLDY    70  64  81 S6        29.96F

......TENNESSEE......

CITY           SKY/WX    TMP DP  RH WIND       PRES   REMARKS
MEMPHIS        CLEAR     79  68  69 CALM      29.96S
NASHVILLE      CLEAR     68  62  81 CALM      29.99F

......ARKANSAS.......

CITY           SKY/WX    TMP DP  RH WIND       PRES   REMARKS
FAYETTEVILLE   PTCLDY    67  67 100 S6        30.02F
FT SMITH       CLEAR     75  70  84 NE3       29.97S
LITTLE ROCK    MOCLDY    76  68  76 CALM      29.96F

......OKLAHOMA.......

CITY           SKY/WX    TMP DP  RH WIND       PRES   REMARKS
TULSA          CLOUDY    75  66  73 SE3       29.96F
PONCA CITY     CLEAR     77  66  68 S3        29.97F
MCALESTER      MOCLDY    71  65  81 CALM      29.98F
OKLAHOMA CITY  PTCLDY    71  68  90 S6        29.98F

......IOWA............

CITY           SKY/WX    TMP DP  RH WIND       PRES   REMARKS
DES MOINES     PTCLDY    74  65  73 SW9       29.89F
QUAD CITIES    CLEAR     74  70  87 SW8       29.89F

......ILLINOIS........

CITY           SKY/WX    TMP DP  RH WIND       PRES   REMARKS
QUINCY         PTCLDY    69  65  86 S6        29.94F
CHICAGO        PTCLDY    73  65  75 W9        29.88F




USA.gov is the U.S. government's official web portal to all federal, state and local government web resources and services.